Regional Weather Roundup
Issued by NWS

Home | Current Version | Previous Version | Graphics & Text | Print | Product List | Glossary On
Versions: 1 2 3 4 5 6 7 8 9 10 11 12 13 14 15 16 17 18 19 20 21 22 23 24 25 26 27 28 29 30 31 32 33 34 35 36 37 38 39 40 41 42 43 44 45 46 47 48 49 50
000
ASUS43 KLMK 280710
RWRKY
KENTUCKY REGIONAL WEATHER ROUNDUP
NATIONAL WEATHER SERVICE LOUISVILLE KY
300 AM EDT SUN MAY 28 2017

NOTE "FAIR" INDICATES FEW OR NO CLOUDS BELOW 12,000 FEET
WITH NO SIGNIFICANT WEATHER AND/OR OBSTRUCTIONS TO VISIBILITY.

KYZ001>023-026-027-061>063-070>075-280800-
WESTERN AND SOUTH CENTRAL KENTUCKY

CITY           SKY/WX    TMP DP  RH WIND       PRES   REMARKS
PADUCAH        LGT RAIN  65  61  87 SW13G18   29.81R
HENDERSON      CLOUDY    65  62  90 W16       29.81F
OWENSBORO      LGT RAIN  65  62  90 S16       29.76F
HOPKINSVILLE   LGT RAIN  64  64 100 S8        29.85F
BOWLING GREEN  LGT RAIN  65  64  97 S13       29.89F
GLASGOW        CLOUDY    64  64 100 SW12G17   29.90F
$$

KYZ024-025-028>034-038-045-046-053-280800-
NORTH CENTRAL KENTUCKY

CITY           SKY/WX    TMP DP  RH WIND       PRES   REMARKS
LOUISVILLE/SDF CLOUDY    66  62  87 SW13      29.82R
LOUISVILLE/LOU MOCLDY    66  63  90 SW7       29.83R
FORT KNOX      CLOUDY    64  63  94 SW8       29.81F
$$

KYZ035>037-039>044-047>052-055>060-089>105-280800-
NORTHEAST KENTUCKY

CITY           SKY/WX    TMP DP  RH WIND       PRES   REMARKS
LEXINGTON      CLOUDY    63  59  87 S9        29.85R
COVINGTON      CLOUDY    65  61  87 SW3       29.80S
FRANKFORT      PTCLDY    64  59  83 SW10      29.82S
$$

KYZ054-064>069-076>088-106>120-280800-
SOUTHEAST KENTUCKY

CITY           SKY/WX    TMP DP  RH WIND       PRES   REMARKS
JACKSON        FOG       63  63 100 MISG      29.88S VSB 1
LONDON         PTCLDY    61  59  93 CALM      29.90R
SOMERSET       CLOUDY    61  61 100 CALM      29.90S
MIDDLESBORO    CLOUDY    64  62  91 CALM      29.91S
MONTICELLO     PTSUNNY   62  61  96 SW8G16    29.91F
$$





USA.gov is the U.S. government's official web portal to all federal, state and local government web resources and services.